Regional Weather Roundup
Issued by NWS Binghamton, NY

Current Version | Previous Version | Text Only | Print | Product List | Glossary On
Versions: 1 2 3 4 5 6 7 8 9 10 11 12 13 14 15 16 17 18 19 20 21 22 23 24 25 26 27
000
ASUS41 KBGM 242210
RWRBGM

REGIONAL WEATHER ROUNDUP
NATIONAL WEATHER SERVICE BINGHAMTON NY
500 PM EST FRI FEB 24 2017

Note: "fair" indicates few or no clouds below 12,000 feet with no
significant weather and/or obstructions to visibility.

* = Station(s) that does not report precipitation, such as rain,
snow, etc, also no thunder or fog.

NYZ009-015>018-022>025-036-037-044>046-055>057-062-242300
...Central New York...

CITY           SKY/WX    TMP DP  RH WIND       PRES   REMARKS
Binghamton     CLOUDY    67  47  48 S10G18    29.75S
Cortland       FAIR      70  50  49 S10G16    29.72S
Dansville      PTCLDY    74  48  39 S8        29.63F
Elmira         CLEAR     71  50  47 S10       29.69F
Seneca Falls   CLEAR     70  54  56 S13       29.65F
Ithaca         CLOUDY    70  51  51 S17G25    29.71F
Hamilton       CLEAR     68  48  49 S8        29.73S
Monticello     PTCLDY    66  50  55 S10       29.83S
Norwich        PTCLDY    70  46  43 S9        29.75S
Oneonta        CLEAR     66  45  45 S6        29.78R
Penn Yan       CLOUDY    71  50  47 S15       29.67F
Rome           CLOUDY    68  53  58 E5        29.71S
Sidney         CLEAR     70  46  43 W3        29.76R
Syracuse       CLOUDY    68  52  56 S6        29.66F
$$

PAZ038>040-043-044-047-048-072-242300
...Northeast Pennsylvania...

CITY           SKY/WX    TMP DP  RH WIND       PRES   REMARKS
Hazleton       CLEAR     68  50  52 SE10      29.83F
Scranton       CLEAR     72  50  45 S10G22    29.77S
$$
&&
KEY
WCI = Wind Chill Index
VSB = Visibility
HX  = Heat Index
$$




USA.gov is the U.S. government's official web portal to all federal, state and local government web resources and services.